Weather History for Delaware, OH

Change the Weather History Date:

Thursday, August 8, 2013

  Actual Average Record
Temperature  
Mean Temperature 73 °F -  
Max Temperature 80 °F 81 °F 96 °F (1941)
Min Temperature 66 °F 59 °F 46 °F (1989)
Cooling Degree Days 8    
Growing Degree Days 23 (Base 50)    
Moisture  
Dew Point 68 °F    
Average Humidity 89    
Maximum Humidity 94    
Minimum Humidity 70    
Precipitation  
Precipitation 1.19 in - - ()
Sea Level Pressure  
Sea Level Pressure 29.95 in    
Wind  
Wind Speed 1 mph (South)    
Max Wind Speed 13 mph    
Max Gust Speed 25 mph    
Visibility 5 miles    
Events Fog , Rain , Thunderstorm    
Averages and records for this station are not official NWS values.
T = Trace of Precipitation, MM = Missing Value Source: NWS Daily Summary

Daily Weather History Graph

Daily Weather History Graph

Search for Another Location

Airport:

Trip Planner

Search our weather history database for the weather conditions in past years. The results will help you decide how hot, cold, wet, or windy it might be!

Date:

Astronomy

Aug. 08, 2013 Rise Set
Actual Time 6:37 AM EDT 8:38 PM EDT
Civil Twilight 6:07 AM EDT 9:08 PM EDT
Nautical Twilight 5:30 AM EDT 9:44 PM EDT
Astronomical Twilight 4:51 AM EDT 10:23 PM EDT
Moon 8:23 AM EDT (8/8) 9:15 PM EDT (8/8)
Length of Visible Light 15h 00m
Length of Day
14h 01m
Waxing Crescent, 3% of the Moon is Illuminated
Aug 8
Waxing Crescent
Aug 14
First Quarter
Aug 20
Full
Aug 28
Last Quarter
Sep 5
New

Hourly Weather History & Observations

Time (EDT) Temp. Heat Index Dew Point Humidity Pressure Visibility Wind Dir Wind Speed Gust Speed Precip Events Conditions
12:16 AM 71.6 °F - 68.0 °F 88% 29.95 in 5.0 mi Calm Calm - N/A   Clear
12:36 AM 71.6 °F - 68.0 °F 88% 29.95 in 7.0 mi South 3.5 mph - N/A   Clear
12:55 AM 71.6 °F - 68.0 °F 88% 29.95 in 10.0 mi Calm Calm - N/A   Clear
1:16 AM 71.6 °F - 68.0 °F 88% 29.95 in 10.0 mi SSW 3.5 mph - N/A   Clear
1:36 AM 71.6 °F - 68.0 °F 88% 29.95 in 10.0 mi Calm Calm - N/A   Scattered Clouds
1:55 AM 71.6 °F - 68.0 °F 88% 29.95 in 7.0 mi Calm Calm - N/A   Mostly Cloudy
2:16 AM 69.8 °F - 68.0 °F 94% 29.95 in 7.0 mi Calm Calm - N/A   Mostly Cloudy
2:36 AM 69.8 °F - 68.0 °F 94% 29.95 in 7.0 mi Calm Calm - N/A   Mostly Cloudy
2:55 AM 69.8 °F - 68.0 °F 94% 29.95 in 7.0 mi Calm Calm - N/A   Scattered Clouds
3:16 AM 68.0 °F - 66.2 °F 94% 29.94 in 7.0 mi Calm Calm - N/A   Clear
3:36 AM 68.0 °F - 66.2 °F 94% 29.94 in 7.0 mi Calm Calm - N/A   Clear
3:55 AM 68.0 °F - 64.4 °F 88% 29.95 in 5.0 mi Calm Calm - N/A   Clear
4:16 AM 68.0 °F - 64.4 °F 88% 29.95 in 5.0 mi Calm Calm - N/A   Clear
4:36 AM 68.0 °F - 64.4 °F 88% 29.95 in 2.5 mi Calm Calm - N/A   Mist
4:55 AM 66.2 °F - 64.4 °F 94% 29.94 in 1.2 mi Calm Calm - N/A   Scattered Clouds
5:16 AM 68.0 °F - 64.4 °F 88% 29.94 in 0.5 mi Calm Calm - N/A Fog Fog
5:36 AM 66.2 °F - 64.4 °F 94% 29.94 in 1.8 mi Calm Calm - N/A   Mist
5:56 AM 68.0 °F - 66.2 °F 94% 29.94 in 1.8 mi Calm Calm - N/A   Mostly Cloudy
6:16 AM 68.0 °F - 66.2 °F 94% 29.95 in 2.5 mi Calm Calm - N/A   Overcast
6:36 AM 68.0 °F - 66.2 °F 94% 29.94 in 2.0 mi Calm Calm - N/A   Overcast
6:55 AM 69.8 °F - 68.0 °F 94% 29.94 in 3.0 mi Calm Calm - N/A   Overcast
7:16 AM 68.0 °F - 66.2 °F 94% 29.94 in 1.5 mi Calm Calm - N/A   Overcast
7:35 AM 69.8 °F - 68.0 °F 94% 29.95 in 1.2 mi Calm Calm - N/A   Overcast
7:56 AM 69.8 °F - 68.0 °F 94% 29.95 in 1.5 mi Calm Calm - N/A   Overcast
8:16 AM 71.6 °F - 69.8 °F 94% 29.95 in 1.5 mi Calm Calm - N/A   Mostly Cloudy
8:35 AM 71.6 °F - 69.8 °F 94% 29.95 in 3.0 mi Calm Calm - N/A   Scattered Clouds
8:56 AM 71.6 °F - 69.8 °F 94% 29.96 in 3.0 mi Calm Calm - N/A   Mostly Cloudy
9:16 AM 73.4 °F - 69.8 °F 88% 29.95 in 5.0 mi Calm Calm - N/A   Overcast
9:35 AM 73.4 °F - 69.8 °F 88% 29.96 in 5.0 mi Calm Calm - N/A   Haze
9:56 AM 73.4 °F - 69.8 °F 88% 29.96 in 5.0 mi SSW 3.5 mph - N/A   Overcast
10:16 AM 75.2 °F - 69.8 °F 83% 29.96 in 5.0 mi Calm Calm - N/A   Haze
10:35 AM 77.0 °F - 69.8 °F 78% 29.97 in 5.0 mi SSE 3.5 mph - N/A   Haze
10:56 AM 77.0 °F - 69.8 °F 78% 29.98 in 5.0 mi Calm Calm - N/A   Haze
11:16 AM 78.8 °F - 71.6 °F 78% 29.98 in 5.0 mi SW 4.6 mph - N/A   Haze
11:35 AM 78.8 °F - 71.6 °F 78% 29.98 in 7.0 mi SSW 4.6 mph - N/A   Overcast
11:56 AM 77.0 °F - 69.8 °F 78% 29.98 in 5.0 mi SSW 8.1 mph - N/A   Haze
12:16 PM 78.8 °F - 71.6 °F 78% 29.97 in 5.0 mi South 9.2 mph - N/A   Haze
12:35 PM 78.8 °F - 69.8 °F 74% 29.96 in 5.0 mi South 8.1 mph - N/A   Haze
12:56 PM 78.8 °F - 69.8 °F 74% 29.97 in 5.0 mi South 4.6 mph - N/A   Haze
1:16 PM 78.8 °F - 69.8 °F 74% 29.96 in 5.0 mi South 4.6 mph - N/A   Haze
1:35 PM 80.6 °F 83.9 °F 69.8 °F 70% 29.96 in 7.0 mi SSE 4.6 mph - N/A   Scattered Clouds
1:56 PM 80.6 °F 83.9 °F 69.8 °F 70% 29.95 in 7.0 mi SSE 6.9 mph - N/A   Mostly Cloudy
2:16 PM 80.6 °F 83.9 °F 69.8 °F 70% 29.95 in 7.0 mi SE 6.9 mph - N/A   Mostly Cloudy
2:35 PM 78.8 °F - 69.8 °F 74% 29.94 in 5.0 mi ESE 3.5 mph - N/A Rain , Thunderstorm Light Thunderstorms and Rain
2:56 PM 73.4 °F - 68.0 °F 83% 29.96 in 4.0 mi North 12.7 mph 25.3 mph 0.01 in Rain , Thunderstorm Heavy Thunderstorms and Rain
3:16 PM 69.8 °F - 68.0 °F 94% 29.96 in 0.2 mi North 6.9 mph - 0.13 in Rain , Thunderstorm Heavy Thunderstorms and Rain
3:35 PM 69.8 °F - 68.0 °F 94% 29.95 in 4.0 mi Calm Calm - 0.41 in Rain , Thunderstorm Light Thunderstorms and Rain
3:56 PM 71.6 °F - 69.8 °F 94% 29.95 in 10.0 mi SSE 5.8 mph - 0.75 in   Overcast
4:16 PM 69.8 °F - 68.0 °F 94% 29.96 in 10.0 mi South 3.5 mph - 0.18 in Thunderstorm Overcast
4:35 PM 69.8 °F - 68.0 °F 94% 29.96 in 1.5 mi Calm Calm - 0.22 in Rain , Thunderstorm Heavy Thunderstorms and Rain
4:56 PM 69.8 °F - 68.0 °F 94% 29.95 in 1.0 mi Calm Calm - 0.29 in Rain Heavy Rain
5:16 PM 69.8 °F - 68.0 °F 94% 29.94 in 5.0 mi Calm Calm - 0.08 in Rain Light Rain
5:35 PM 71.6 °F - 68.0 °F 88% 29.94 in 10.0 mi Calm Calm - 0.14 in   Overcast
5:56 PM 71.6 °F - 69.8 °F 94% 29.95 in 10.0 mi Calm Calm - 0.14 in   Overcast
6:16 PM 71.6 °F - 69.8 °F 94% 29.95 in 10.0 mi Calm Calm - N/A   Overcast
6:35 PM 71.6 °F - 69.8 °F 94% 29.95 in 10.0 mi Calm Calm - N/A   Overcast
6:56 PM 71.6 °F - 69.8 °F 94% 29.95 in 10.0 mi Calm Calm - N/A   Mostly Cloudy
7:16 PM 71.6 °F - 69.8 °F 94% 29.95 in 10.0 mi Calm Calm - N/A   Mostly Cloudy
7:36 PM 71.6 °F - 68.0 °F 88% 29.95 in 10.0 mi Calm Calm - N/A   Scattered Clouds
7:56 PM 71.6 °F - 68.0 °F 88% 29.94 in 10.0 mi Calm Calm - N/A   Mostly Cloudy
8:15 PM 71.6 °F - 68.0 °F 88% 29.95 in 10.0 mi Calm Calm - N/A   Mostly Cloudy
8:36 PM 69.8 °F - 68.0 °F 94% 29.93 in 7.0 mi Calm Calm - N/A   Scattered Clouds
8:56 PM 69.8 °F - 68.0 °F 94% 29.93 in 7.0 mi Calm Calm - N/A   Clear
9:15 PM 68.0 °F - 66.2 °F 94% 29.94 in 7.0 mi Calm Calm - N/A   Clear
9:36 PM 68.0 °F - 66.2 °F 94% 29.94 in 5.0 mi Calm Calm - N/A   Clear
9:56 PM 68.0 °F - 66.2 °F 94% 29.95 in 4.0 mi Calm Calm - N/A   Clear
10:15 PM 68.0 °F - 66.2 °F 94% 29.96 in 5.0 mi Calm Calm - N/A   Scattered Clouds
10:36 PM 68.0 °F - 64.4 °F 88% 29.95 in 1.8 mi Calm Calm - N/A   Mostly Cloudy
10:56 PM 68.0 °F - 66.2 °F 94% 29.96 in 2.5 mi Calm Calm - N/A   Overcast
11:15 PM 69.8 °F - 68.0 °F 94% 29.96 in 3.0 mi Calm Calm - N/A   Overcast
11:36 PM 69.8 °F - 68.0 °F 94% 29.97 in 3.0 mi North 4.6 mph - N/A   Overcast
11:56 PM 69.8 °F - 68.0 °F 94% 29.96 in 2.5 mi Calm Calm - N/A   Overcast